This demonstration page uses our WeatherBlox Daily Observations layout. Learn more.

Left ArrowRight Arrow

38.20091, -84.87328

Hourly Observations for January 5, 2015

Temp ( °F °C ) Dew Point ( °F °C ) Humidity (%) Winds ( mph kmh ) Pressure ( in mb ) Visibility ( mi km ) Precip ( " mm )
12:53 am 00:53 Cloudy 22 -5.6 15 -9.4 75 75 W 13 20 30.47 1032 10 16 0.00 0.00
1:53 am 01:53 Cloudy 21 -6.1 12 -11.1 68 68 W 12 19 30.51 1033 10 16 0.00 0.00
2:53 am 02:53 Cloudy 20 -6.7 10 -12.2 65 65 WNW 9 15 30.54 1034 10 16 0.00 0.00
3:25 am 03:25 Mostly Clear 19 -7.2 10 -12.2 68 68 WNW 7 11 30.59 1036 10 16 0.00 0.00
3:53 am 03:53 Clear 19 -7.2 10 -12.2 68 68 WNW 9 15 30.56 1035 10 16 0.00 0.00
4:53 am 04:53 Clear 18 -7.8 9 -12.8 68 68 VRB 7 11 30.58 1036 10 16 0.00 0.00
5:53 am 05:53 Clear 17 -8.3 7 -13.9 64 64 WNW 7 11 30.58 1036 10 16 0.00 0.00
6:53 am 06:53 Clear 16 -8.9 7 -13.9 67 67 WNW 8 13 30.61 1037 10 16 0.00 0.00
7:53 am 07:53 Clear 15 -9.4 5 -15 64 64 WNW 9 15 30.64 1038 10 16 0.00 0.00
8:53 am 08:53 Sunny 16 -8.9 6 -14.4 65 65 WNW 7 11 30.67 1039 10 16 0.00 0.00
9:53 am 09:53 Sunny 18 -7.8 6 -14.4 59 59 WNW 8 13 30.68 1039 10 16 0.00 0.00
10:53 am 10:53 Sunny 19 -7.2 5 -15 54 54 W 8 13 30.69 1039 10 16 0.00 0.00
11:53 am 11:53 Sunny 20 -6.7 3 -16.1 48 48 W 8 13 30.67 1039 10 16 0.00 0.00
12:53 pm 12:53 Sunny 21 -6.1 2 -16.7 43 43 VRB 3 6 30.64 1038 10 16 0.00 0.00
1:53 pm 13:53 Sunny 22 -5.6 4 -15.6 46 46 Calm 30.61 1037 10 16 0.00 0.00
2:53 pm 14:53 Sunny 23 -5 3 -16.1 42 42 undefined N/A 30.60 1036 10 16 0.00 0.00
3:53 pm 15:53 Sunny 23 -5 3 -16.1 42 42 VRB 6 9 30.59 1036 10 16 0.00 0.00
4:53 pm 16:53 Sunny 23 -5 4 -15.6 44 44 WNW 5 7 30.59 1036 10 16 0.00 0.00
5:53 pm 17:53 Clear 22 -5.6 5 -15 48 48 NNW 3 6 30.57 1035 10 16 0.00 0.00
6:53 pm 18:53 Clear 22 -5.6 6 -14.4 50 50 Calm 30.53 1034 10 16 0.00 0.00
7:53 pm 19:53 Clear 22 -5.6 7 -13.9 52 52 Calm 30.50 1033 10 16 0.00 0.00
8:53 pm 20:53 Clear 22 -5.6 9 -12.8 57 57 Calm 30.50 1033 10 16 0.00 0.00
9:53 pm 21:53 Clear 21 -6.1 9 -12.8 59 59 ESE 3 6 30.46 1031 10 16 0.00 0.00
10:53 pm 22:53 Clear 21 -6.1 10 -12.2 62 62 ESE 8 13 30.39 1029 10 16 0.00 0.00
11:53 pm 23:53 Mostly Clear 22 -5.6 10 -12.2 60 60 SSE 6 9 30.36 1028 10 16 0.00 0.00

Powered by AerisWeather